Location: Unspecified
(0.0000°N, 0.0000°E)
Time: 21:58:08
(UTC+00:00)

BREEZE-M R/B - Visible Passes

Search period start: 30 October 2020 00:00
Search period end: 09 November 2020 00:00
Orbit: 3144 x 63133 km, 23.8° (Epoch: 29 October)

Date Brightness Start Highest point End Pass type
(mag) Time Alt. Az. Time Alt. Az. Time Alt. Az.
30 Oct ? 04:57:09 10° WSW 05:36:20 80° SE 16:05:17 10° WNW visible
31 Oct ? 02:31:50 15° SW 02:48:41 50° SSE 16:46:31 10° WNW visible
01 Nov ? 00:00:39 10° WSW 00:14:49 33° SSE 00:36:18 10° ESE visible
01 Nov ? 04:05:33 10° ENE 10:49:24 66° N 17:50:26 10° WNW visible
01 Nov ? 21:09:25 10° W 21:42:06 46° SSW 21:46:47 38° SSE visible
02 Nov ? 05:04:14 10° ENE 11:32:53 64° N 19:28:34 10° ESE visible
03 Nov ? 05:45:51 10° ENE 12:41:26 63° N 17:01:11 10° ESE visible
